When you browse on this site, cookies collect data to enhance your experience and personalize the content and advertising you see.
Visit our Privacy Policy to learn more. By continuing to use the site, you agree to this use of cookies and data.
  • In Lithuania
  • List of Countries
  • For 7 days
  • Water Temperature
  • Satellite Maps
  • Weather Map
  • Weather Widgets
  • user-avatar
    Login

    Hourly Weather Kucherla

    Today, 11 December, Tuesday

    Time Temperature Precipitation Wind Pressure Humidity
    00:00 +3°C° 0 mm 4 mps 746 mmHg 89%
    01:00 +3°C° 0 mm 4 mps 746 mmHg 90%
    02:00 +3°C° 0 mm 4 mps 746 mmHg 91%
    03:00 +1°C° 0 mm 4 mps 746 mmHg 88%
    04:00 +1°C° 0 mm 4 mps 745 mmHg 88%
    05:00 +1°C° 0 mm 4 mps 745 mmHg 88%
    06:00 +1°C° 0 mm 4 mps 745 mmHg 88%
    07:00 +1°C° 0 mm 4 mps 745 mmHg 89%
    08:00 +1°C° 0 mm 4 mps 744 mmHg 89%
    09:00 +3°C° 0 mm 4 mps 744 mmHg 89%
    10:00 +3°C° 0 mm 4 mps 743 mmHg 88%
    11:00 +3°C° 0 mm 5 mps 743 mmHg 87%
    12:00 +5°C° 0 mm 5 mps 742 mmHg 86%
    13:00 +5°C° 0 mm 5 mps 742 mmHg 87%
    14:00 +5°C° 0 mm 5 mps 741 mmHg 88%
    15:00 +6°C° 0 mm 5 mps 740 mmHg 89%
    16:00 +6°C° 0 mm 4 mps 740 mmHg 91%
    17:00 +7°C° 0 mm 3 mps 740 mmHg 93%
    18:00 +7°C° 0 mm 2 mps 740 mmHg 95%
    19:00 +7°C° 0 mm 2 mps 741 mmHg 95%
    20:00 +7°C° 0 mm 2 mps 741 mmHg 95%
    21:00 +5°C° 0 mm 3 mps 741 mmHg 96%
    22:00 +6°C° 0 mm 2 mps 742 mmHg 96%
    23:00 +6°C° 0 mm 2 mps 742 mmHg 96%

    Tomorrow, 12 December, Wednesday

    Time Temperature Precipitation Wind Pressure Humidity
    00:00 +6°C° 0 mm 2 mps 742 mmHg 97%
    01:00 +7°C° 0 mm 1 mps 743 mmHg 96%
    02:00 +6°C° 0 mm 1 mps 743 mmHg 96%
    03:00 +6°C° 0 mm 1 mps 743 mmHg 96%
    04:00 +6°C° 0 mm 1 mps 743 mmHg 96%
    05:00 +6°C° 0 mm 1 mps 744 mmHg 96%
    06:00 +6°C° 0 mm 1 mps 744 mmHg 96%
    07:00 +6°C° 0 mm 1 mps 744 mmHg 96%
    08:00 +6°C° 0 mm 1 mps 744 mmHg 95%
    09:00 +6°C° 0 mm 1 mps 744 mmHg 95%
    10:00 +6°C° 0 mm 2 mps 744 mmHg 90%
    11:00 +7°C° 0 mm 2 mps 743 mmHg 85%
    12:00 +8°C° 0 mm 3 mps 743 mmHg 80%
    13:00 +8°C° 0 mm 3 mps 743 mmHg 79%
    14:00 +8°C° 0 mm 3 mps 743 mmHg 79%
    15:00 +8°C° 0 mm 3 mps 744 mmHg 79%
    16:00 +7°C° 0.3 mm 3 mps 744 mmHg 82%
    17:00 +7°C° 0.3 mm 3 mps 744 mmHg 85%
    18:00 +5°C° 0.3 mm 4 mps 744 mmHg 88%
    19:00 +5°C° 0.4 mm 3 mps 745 mmHg 89%
    20:00 +5°C° 0.4 mm 3 mps 745 mmHg 90%
    21:00 +5°C° 0.4 mm 2 mps 745 mmHg 91%
    22:00 +4°C° 0.6 mm 3 mps 745 mmHg 91%
    23:00 +4°C° 0.6 mm 4 mps 746 mmHg 90%

    Day after tomorrow, 13 December, Thursday

    Time Temperature Precipitation Wind Pressure Humidity
    00:00 +3°C° 0.6 mm 5 mps 746 mmHg 90%
    01:00 +3°C° 0.6 mm 5 mps 746 mmHg 88%
    02:00 +3°C° 0.6 mm 5 mps 747 mmHg 87%
    03:00 +3°C° 0.6 mm 5 mps 747 mmHg 85%
    04:00 +2°C° 0.8 mm 5 mps 747 mmHg 85%
    05:00 +2°C° 0.8 mm 5 mps 747 mmHg 84%
    06:00 +2°C° 0.8 mm 5 mps 748 mmHg 83%
    07:00 +2°C° 0.5 mm 5 mps 748 mmHg 82%
    08:00 +2°C° 0.5 mm 5 mps 749 mmHg 81%
    09:00 +3°C° 0.5 mm 4 mps 749 mmHg 80%
    10:00 +3°C° 0.1 mm 4 mps 749 mmHg 77%
    11:00 +4°C° 0.1 mm 4 mps 750 mmHg 75%
    12:00 +4°C° 0.1 mm 4 mps 750 mmHg 73%
    13:00 +4°C° 0 mm 4 mps 750 mmHg 72%
    14:00 +4°C° 0 mm 4 mps 750 mmHg 71%
    15:00 +4°C° 0 mm 4 mps 751 mmHg 70%
    16:00 +3°C° 0 mm 4 mps 751 mmHg 74%
    17:00 +2°C° 0 mm 3 mps 751 mmHg 77%
    18:00 +2°C° 0 mm 3 mps 752 mmHg 81%
    19:00 +1°C° 0 mm 3 mps 752 mmHg 82%
    20:00 +1°C° 0 mm 3 mps 753 mmHg 83%
    21:00 +1°C° 0 mm 3 mps 753 mmHg 83%
    22:00 +1°C° 0 mm 3 mps 753 mmHg 83%
    23:00 +1°C° 0 mm 3 mps 753 mmHg 83%

    14 December, Friday

    Time Temperature Precipitation Wind Pressure Humidity
    00:00 0°C° 0 mm 4 mps 754 mmHg 83%
    01:00 +1°C° 0 mm 3 mps 754 mmHg 84%
    02:00 +1°C° 0 mm 3 mps 754 mmHg 85%
    03:00 +1°C° 0 mm 3 mps 754 mmHg 85%
    04:00 0°C° 0 mm 3 mps 754 mmHg 86%
    05:00 +1°C° 0 mm 2 mps 754 mmHg 88%
    06:00 -1°C° 0 mm 2 mps 755 mmHg 89%
    07:00 +1°C° 0 mm 2 mps 755 mmHg 87%
    08:00 +1°C° 0 mm 2 mps 755 mmHg 84%
    09:00 +1°C° 0 mm 2 mps 755 mmHg 82%
    10:00 +3°C° 0 mm 2 mps 755 mmHg 75%
    11:00 +4°C° 0 mm 2 mps 755 mmHg 68%
    12:00 +5°C° 0 mm 2 mps 754 mmHg 61%
    13:00 +5°C° 0 mm 2 mps 754 mmHg 60%
    14:00 +5°C° 0 mm 2 mps 754 mmHg 58%
    15:00 +5°C° 0 mm 2 mps 754 mmHg 57%
    16:00 +5°C° 0 mm 1 mps 754 mmHg 61%
    17:00 +5°C° 0 mm 1 mps 755 mmHg 65%
    18:00 +4°C° 0 mm 1 mps 755 mmHg 69%
    19:00 +4°C° 0 mm 1 mps 755 mmHg 70%
    20:00 +3°C° 0 mm 1 mps 755 mmHg 71%
    21:00 +3°C° 0 mm 1 mps 755 mmHg 72%
    22:00 +2°C° 0 mm 2 mps 755 mmHg 73%
    23:00 +2°C° 0 mm 2 mps 755 mmHg 74%

    15 December, Saturday

    Time Temperature Precipitation Wind Pressure Humidity
    00:00 +2°C° 0 mm 2 mps 755 mmHg 75%
    01:00 +1°C° 0 mm 2 mps 756 mmHg 76%
    02:00 +1°C° 0 mm 2 mps 756 mmHg 76%
    03:00 +1°C° 0 mm 2 mps 756 mmHg 77%
    04:00 +1°C° 0 mm 2 mps 756 mmHg 77%
    05:00 +1°C° 0 mm 2 mps 756 mmHg 78%
    06:00 +1°C° 0 mm 2 mps 756 mmHg 78%
    07:00 +1°C° 0 mm 2 mps 757 mmHg 77%
    08:00 +1°C° 0 mm 3 mps 757 mmHg 76%
    09:00 +1°C° 0 mm 3 mps 757 mmHg 74%
    10:00 +2°C° 0 mm 3 mps 757 mmHg 71%
    11:00 +3°C° 0 mm 4 mps 757 mmHg 67%
    12:00 +4°C° 0 mm 4 mps 757 mmHg 64%
    13:00 +4°C° 0 mm 4 mps 758 mmHg 65%
    14:00 +4°C° 0 mm 4 mps 758 mmHg 66%
    15:00 +4°C° 0 mm 4 mps 758 mmHg 66%
    16:00 +3°C° 0 mm 4 mps 758 mmHg 72%
    17:00 +2°C° 0 mm 3 mps 759 mmHg 77%
    18:00 +1°C° 0 mm 3 mps 759 mmHg 83%
    19:00 +1°C° 0 mm 2 mps 759 mmHg 85%
    20:00 +1°C° 0 mm 2 mps 759 mmHg 87%
    21:00 -1°C° 0 mm 2 mps 760 mmHg 89%
    22:00 -1°C° 0 mm 2 mps 760 mmHg 89%
    23:00 -1°C° 0 mm 2 mps 760 mmHg 90%

    16 December, Sunday

    Time Temperature Precipitation Wind Pressure Humidity
    00:00 -2°C° 0 mm 2 mps 760 mmHg 90%
    01:00 -2°C° 0 mm 2 mps 760 mmHg 90%
    02:00 -2°C° 0 mm 2 mps 760 mmHg 89%
    03:00 -2°C° 0 mm 2 mps 760 mmHg 89%
    04:00 -2°C° 0 mm 2 mps 761 mmHg 88%
    05:00 -2°C° 0 mm 2 mps 761 mmHg 87%
    06:00 -2°C° 0 mm 2 mps 761 mmHg 86%
    07:00 -2°C° 0 mm 2 mps 761 mmHg 84%
    08:00 -2°C° 0 mm 3 mps 761 mmHg 82%
    09:00 -2°C° 0 mm 3 mps 762 mmHg 80%
    10:00 -2°C° 0 mm 3 mps 762 mmHg 77%
    11:00 -1°C° 0 mm 3 mps 761 mmHg 74%
    12:00 -1°C° 0 mm 3 mps 761 mmHg 72%
    13:00 -2°C° 0 mm 4 mps 761 mmHg 71%
    14:00 -2°C° 0 mm 4 mps 761 mmHg 71%
    15:00 -2°C° 0 mm 4 mps 761 mmHg 71%
    16:00 -2°C° 0 mm 4 mps 761 mmHg 73%
    17:00 -2°C° 0 mm 4 mps 761 mmHg 75%
    18:00 -4°C° 0 mm 5 mps 762 mmHg 77%
    19:00 -4°C° 0 mm 5 mps 761 mmHg 78%
    20:00 -4°C° 0 mm 5 mps 761 mmHg 79%
    21:00 -4°C° 0 mm 5 mps 761 mmHg 79%
    22:00 -4°C° 0 mm 5 mps 761 mmHg 80%
    23:00 -4°C° 0 mm 5 mps 761 mmHg 81%
    Show more